Location: Brookview Estates
(36.0476°N, 86.6931°W)
Time: 23:23:12
(UTC+00:00)

Meteor 1-31 Rocket - Pass Details

Date: 30 March 2020
Orbit: 520 x 548 km, 97.6° (Epoch: 27 May)

Event Time Altitude Azimuth Distance (km) Brightness Sun altitude
Rises 10:18:50 0° 13° (NNE) 2,724 6.8 -15.9°
Reaches altitude 10° 10:20:59 10° 15° (NNE) 1,826 5.9 -15.5°
Maximum altitude 10:24:56 78° 101° (E) 564 2.9 -14.8°
Drops below altitude 10° 10:28:51 10° 189° (S) 1,808 5.2 -14.0°
Sets 10:30:57 0° 190° (S) 2,693 6.1 -13.6°
